Weather History for KOTM - December, 2012

Change the Weather History Date:

Friday, December 7, 2012

  Actual Average Record
Temperature  
Mean Temperature 39 °F 28 °F  
Max Temperature 42 °F 37 °F 60 °F (1947)
Min Temperature 36 °F 20 °F -10 °F (1976)
Degree Days  
Heating Degree Days 26 37  
Month to date heating degree days 134 247  
Since 1 July heating degree days 1428 1545  
Cooling Degree Days 0 0  
Month to date cooling degree days 0 0  
Year to date cooling degree days 1237 938  
Moisture  
Dew Point 35 °F    
Average Humidity 83    
Maximum Humidity 92    
Minimum Humidity 73    
Precipitation  
Precipitation 0.04 in 0.05 in 1.90 in (1980)
Month to date precipitation 0.07 0.39  
Year to date precipitation 25.53 36.09  
Sea Level Pressure  
Sea Level Pressure 29.93 in    
Wind  
Wind Speed 7 mph (NNE)    
Max Wind Speed 13 mph    
Max Gust Speed 15 mph    
Visibility 7 miles    
Events Rain    
T = Trace of Precipitation, MM = Missing Value Source: NWS Daily Summary

Daily Weather History Graph

Daily Weather History Graph

Search for Another Location

Airport or City:

Trip Planner

Search our weather history database for the weather conditions in past years. The results will help you decide how hot, cold, wet, or windy it might be!

Date:

Astronomy

Dec. 07, 2012 Rise Set
Actual Time 7:21 AM CST 4:41 PM CST
Civil Twilight 6:50 AM CST 5:11 PM CST
Nautical Twilight 6:16 AM CST 5:46 PM CST
Astronomical Twilight 5:43 AM CST 6:19 PM CST
Moon 12:38 AM CST (12/7) 12:41 PM CST (12/7)
Length of Visible Light 10h 21m
Length of Day
9h 19m
Last Quarter, 38% of the Moon is Illuminated
Dec 7
Last Quarter
Dec 13
New
Dec 19
First Quarter
Dec 28
Full
Jan 4
Last Quarter

Hourly Weather History & Observations

Time (CST) Temp. Windchill Dew Point Humidity Pressure Visibility Wind Dir Wind Speed Gust Speed Precip Events Conditions
12:53 AM 41.0 °F 39.0 °F 37.9 °F 89% 29.96 in 10.0 mi NNW 3.5 mph - 0.00 in Rain Light Rain
1:53 AM 41.0 °F 38.0 °F 37.0 °F 86% 29.97 in 10.0 mi NNW 4.6 mph - 0.00 in   Overcast
2:53 AM 41.0 °F 35.2 °F 36.0 °F 82% 29.96 in 10.0 mi North 9.2 mph - N/A   Overcast
3:53 AM 39.9 °F 36.7 °F 35.1 °F 83% 29.95 in 10.0 mi NE 4.6 mph - 0.00 in Rain Light Rain
4:53 AM 39.9 °F 35.1 °F 34.0 °F 79% 29.95 in 10.0 mi NNE 6.9 mph - 0.00 in   Overcast
5:53 AM 37.9 °F 30.9 °F 33.1 °F 83% 29.94 in 10.0 mi NNE 10.4 mph - 0.00 in Rain Light Rain
6:53 AM 37.9 °F 31.5 °F 32.0 °F 79% 29.95 in 10.0 mi NE 9.2 mph - 0.00 in   Overcast
7:53 AM 37.0 °F 31.6 °F 32.0 °F 82% 29.96 in 10.0 mi NE 6.9 mph - N/A   Overcast
8:53 AM 37.9 °F 32.1 °F 32.0 °F 79% 29.95 in 10.0 mi ENE 8.1 mph - N/A   Overcast
9:53 AM 39.0 °F 33.4 °F 33.1 °F 79% 29.95 in 10.0 mi NE 8.1 mph - N/A   Overcast
10:53 AM 39.0 °F 33.4 °F 32.0 °F 76% 29.96 in 10.0 mi North 8.1 mph - N/A   Overcast
11:53 AM 39.9 °F 35.8 °F 33.1 °F 77% 29.93 in 10.0 mi NE 5.8 mph - N/A   Overcast
12:53 PM 41.0 °F 38.0 °F 34.0 °F 76% 29.92 in 10.0 mi ENE 4.6 mph - N/A   Overcast
1:53 PM 41.0 °F 35.8 °F 34.0 °F 76% 29.88 in 10.0 mi East 8.1 mph - N/A   Overcast
2:53 PM 39.9 °F 34.5 °F 35.1 °F 83% 29.88 in 8.0 mi ENE 8.1 mph - 0.01 in   Overcast
3:53 PM 39.9 °F 36.7 °F 35.1 °F 83% 29.91 in 8.0 mi NNE 4.6 mph - N/A   Overcast
4:24 PM 39.2 °F 35.9 °F 35.6 °F 87% 29.90 in 2.5 mi North 4.6 mph - 0.00 in Rain Light Rain
4:34 PM 39.2 °F 35.0 °F 35.6 °F 87% 29.90 in 4.0 mi North 5.8 mph - 0.00 in   Overcast
4:53 PM 39.0 °F - 36.0 °F 89% 29.93 in 5.0 mi North - - 0.00 in   Overcast
5:53 PM 37.9 °F 32.1 °F 36.0 °F 93% 29.93 in 4.0 mi North 8.1 mph - 0.01 in   Overcast
6:14 PM 37.4 °F 29.8 °F 35.6 °F 93% 29.91 in 4.0 mi North 11.5 mph - N/A   Overcast
6:27 PM 37.4 °F 30.3 °F 35.6 °F 93% 29.91 in 2.5 mi North 10.4 mph - N/A   Overcast
6:34 PM 37.4 °F 31.4 °F 35.6 °F 93% 29.92 in 2.5 mi North 8.1 mph - N/A   Overcast
6:43 PM 37.4 °F 30.8 °F 35.6 °F 93% 29.91 in 2.5 mi North 9.2 mph - N/A   Overcast
6:53 PM 37.4 °F 30.8 °F 35.6 °F 93% 29.91 in 2.5 mi North 9.2 mph - N/A   Overcast
7:00 PM 37.4 °F 31.4 °F 35.6 °F 93% 29.91 in 3.0 mi North 8.1 mph - N/A   Overcast
7:36 PM 37.4 °F 32.1 °F 35.6 °F 93% 29.89 in 4.0 mi ENE 6.9 mph - N/A   Overcast
7:53 PM 37.9 °F 34.4 °F 36.0 °F 93% 29.91 in 5.0 mi ENE 4.6 mph - N/A   Overcast
8:53 PM 37.9 °F 35.5 °F 36.0 °F 93% 29.93 in 4.0 mi ENE 3.5 mph - 0.00 in Rain Light Rain
9:38 PM 37.4 °F 32.8 °F 35.6 °F 93% 29.91 in 6.0 mi East 5.8 mph - 0.02 in   Overcast
9:53 PM 37.0 °F 33.3 °F 36.0 °F 96% 29.93 in 5.0 mi ENE 4.6 mph - 0.02 in   Overcast
10:07 PM 37.4 °F 33.8 °F 35.6 °F 93% 29.92 in 6.0 mi North 4.6 mph - N/A   Overcast
10:18 PM 37.4 °F 32.8 °F 35.6 °F 93% 29.93 in 6.0 mi NW 5.8 mph - N/A   Overcast
10:53 PM 37.0 °F 30.4 °F 34.0 °F 89% 29.95 in 7.0 mi North 9.2 mph - N/A   Overcast
11:47 PM 35.6 °F 28.6 °F 33.8 °F 93% 29.93 in 8.0 mi North 9.2 mph - N/A   Overcast
11:53 PM 36.0 °F 30.3 °F 33.1 °F 89% 29.96 in 9.0 mi North 6.9 mph - N/A   Overcast